www.pogodaiklimat.ru

Погода и климат >> Архив погоды >> Венгрия >> Тат


ПОГОДА в Тате

  • Прогноз погоды в Тате
  • Монитор погоды в Тате

АРХИВ ПОГОДЫ в Тате

Время (UTC), дата Ветер
(напр.,м/с)
 
Видим.   Явления Облачность Т
(С)
Тd
(С)
f
(%)
Тe
(С)
Тes
(С)
Комфортность P
(гПа)
Po
(гПа)
Тmin
(С)
Tmax
(С)
R
(мм)
R24
(мм)
S
(см)
22 8.09 ЮЗ 1 н/о н/о +17.3 +16.3 94 +18 +18 1012.6 999.5
23 8.09 ЮВ 6
{11}
н/о н/о +18.5 +16.3 87 +19 +19 1012.7 999.6
00 9.09 Ю 3
{11}
н/о н/о +18.4 +16.2 87 +19 +19 1011.5 998.4
01 9.09 СЗ 1 н/о н/о +17.8 +16.8 94 +19 +19 1011.8 998.7
02 9.09 штиль 0 н/о н/о +17.3 +16.8 97 +17 +17 1011.0 997.9
03 9.09 В 1 н/о н/о +17.0 +16.7 98 +18 +18 1010.1 997.0
04 9.09 ЮВ 2 н/о н/о +16.8 +15.8 94 +17 +17 1010.2 997.1
05 9.09 Ю 3 н/о н/о +17.3 +15.5 89 +17 +17 1010.6 997.5
06 9.09 Ю 5
{8}
н/о н/о +17.4 +15.0 86 +17 +17 1010.8 997.7 +15.5
07 9.09 ЮВ 4
{7}
н/о н/о +16.8 +16.2 96 +16 +16 1011.1 998.0
08 9.09 ЮВ 4
{8}
н/о н/о +16.9 +15.8 93 +16 +16 1010.5 997.4
09 9.09 Ю 4 н/о н/о +17.1 +16.0 93 +17 +17 1011.7 998.6
10 9.09 Ю 3 н/о н/о +18.6 +17.3 92 +20 +20 1011.5 998.5
11 9.09 З 3 н/о н/о +14.9 +14.1 95 +14 +14 1012.4 999.2
12 9.09 С 1
{7}
н/о н/о +15.3 +14.0 92 +16 +16 1012.5 999.3
13 9.09 З 2 н/о н/о +15.5 +14.0 91 +15 +15 1011.9 998.7
14 9.09 С 1 н/о н/о +15.4 +14.3 93 +16 +16 1011.1 997.9
15 9.09 З 2 н/о н/о +14.8 +13.8 94 +14 +14 1012.2 999.0
16 9.09 З 1 н/о н/о +15.8 +14.0 89 +16 +16 1013.0 999.8
17 9.09 З 1 н/о н/о +14.8 +13.7 93 +15 +15 1013.6 1000.4
18 9.09 З 1 н/о н/о +14.1 +13.3 95 +14 +14 1014.9 1001.6 +19.0
19 9.09 ЮЗ 1 н/о н/о +12.5 +11.7 95 +12 +12 1015.9 1002.5
20 9.09 З 2 н/о н/о +11.9 +11.0 94 +11 +11 1016.5 1003.1
21 9.09 З 2 н/о н/о +12.1 +10.2 88 +11 +11 1017.0 1003.6
22 9.09 ЮЗ 1 н/о н/о +10.6 +9.4 92 +10 +10 1017.4 1003.9
23 9.09 З 1 н/о н/о +10.4 +9.3 93 +10 +10 1017.6 1004.1
00 10.09 З 2 н/о н/о +11.2 +9.9 92 +10 +10 1018.1 1004.6
01 10.09 штиль 0 н/о н/о +10.3 +9.4 94 +9 +9 1018.7 1005.2
02 10.09 ЮВ 1 н/о н/о +8.6 +8.3 98 +8 +8 1019.0 1005.4
03 10.09 ЮВ 1 н/о н/о +8.1 +8.0 99 +7 +7 1019.3 1005.7
04 10.09 штиль 0 н/о н/о +8.1 +8.0 99 +7 +7 1019.6 1006.0
05 10.09 ЮВ 2 н/о н/о +8.1 +8.0 99 +6 +6 1020.1 1006.5
06 10.09 штиль 0 н/о н/о +12.5 +12.3 99 +12 +12 1020.2 1006.8 +7.4
07 10.09 ЮВ 2 н/о н/о +15.1 +10.7 75 +15 +15 1020.6 1007.3
08 10.09 ЮВ 2 н/о н/о +17.0 +11.5 70 +17 +17 1021.0 1007.8
09 10.09 СВ 1 н/о н/о +18.5 +12.7 69 +20 +20 1021.3 1008.1
10 10.09 СВ 1 н/о н/о +20.1 +12.1 60 +23 +23 комфорт 1020.9 1007.8
11 10.09 СВ 1 н/о н/о +21.4 +12.5 57 +24 +24 комфорт 1020.5 1007.5
12 10.09 СВ 1 н/о н/о +22.1 +11.2 50 +24 +24 комфорт 1020.4 1007.4
13 10.09 В 1 н/о н/о +22.5 +11.9 51 +25 +25 комфорт 1020.3 1007.3
14 10.09 В 1 н/о н/о +22.1 +12.1 53 +24 +24 комфорт 1019.9 1006.9
15 10.09 СВ 1 н/о н/о +22.0 +11.4 51 +24 +24 комфорт 1019.9 1006.9
16 10.09 В 1 н/о н/о +20.8 +14.5 67 +25 +25 комфорт 1020.0 1006.9
17 10.09 штиль 0 н/о н/о +17.8 +13.3 75 +18 +18 1020.6 1007.4
18 10.09 ЮВ 1 н/о н/о +14.9 +12.4 85 +15 +15 1021.0 1007.7 +22.7
19 10.09 штиль 0 н/о н/о +13.1 +11.7 91 +13 +13 1021.5 1008.1
20 10.09 штиль 0 н/о н/о +12.4 +11.6 95 +12 +12 1021.9 1008.4
21 10.09 В 1 н/о н/о +11.5 +11.0 97 +11 +11 1022.3 1008.8
22 10.09 В 1 н/о н/о +11.5 +11.0 97 +11 +11 1022.5 1009.0
23 10.09 штиль 0 н/о н/о +10.6 +10.0 96 +10 +10 1022.9 1009.3
00 11.09 штиль 0 н/о н/о +9.5 +9.0 97 +9 +9 1022.9 1009.3
01 11.09 ЮВ 1 н/о н/о +9.2 +9.1 99 +8 +8 1022.8 1009.2
02 11.09 ЮВ 1 н/о н/о +8.2 +8.1 99 +7 +7 1022.9 1009.2
03 11.09 Ю 1 н/о н/о +7.9 +7.9 100 +7 +7 1022.9 1009.2
04 11.09 Ю 1 н/о н/о +7.3 +7.2 99 +6 +6 1023.4 1009.7
05 11.09 Ю 1 н/о н/о +9.2 +9.1 99 +8 +8 1023.5 1009.9
06 11.09 штиль 0 н/о н/о +11.8 +11.6 99 +11 +11 1023.7 1010.2 +7.1
07 11.09 СВ 1 н/о н/о +14.4 +13.9 97 +15 +15 1024.0 1010.6
08 11.09 СВ 1 н/о н/о +17.6 +13.1 75 +19 +19 1024.4 1011.1
09 11.09 В 1 н/о н/о +20.3 +13.5 65 +24 +24 комфорт 1024.2 1011.1
10 11.09 В 1 н/о н/о +22.1 +11.2 50 +24 +24 комфорт 1023.9 1010.8
11 11.09 СВ 1 н/о н/о +23.1 +9.5 42 +25 +25 комфорт 1023.5 1010.5
12 11.09 СВ 1 н/о н/о +24.1 +11.1 44 +25 +25 комфорт 1023.2 1010.2
13 11.09 В 1 н/о н/о +24.6 +11.2 43 +26 +26 жарко 1022.8 1009.9
14 11.09 В 1 н/о н/о +24.2 +11.9 46 +26 +26 жарко 1022.5 1009.6
15 11.09 В 1 н/о н/о +24.1 +11.8 46 +26 +26 жарко 1022.4 1009.5
16 11.09 В 1 н/о н/о +22.1 +12.4 54 +25 +25 комфорт 1022.7 1009.7
17 11.09 штиль 0 н/о н/о +19.5 +13.4 68 +21 +21 комфорт 1023.3 1010.1
18 11.09 штиль 0 н/о н/о +17.2 +11.9 71 +17 +17 1024.0 1010.7 +25.3
19 11.09 СЗ 1 н/о н/о +17.0 +14.8 87 +18 +18 1024.3 1011.0
20 11.09 штиль 0 н/о н/о +15.7 +14.4 92 +15 +15 1024.6 1011.3
21 11.09 СЗ 1 н/о н/о +15.5 +14.5 94 +16 +16 1025.0 1011.6
22 11.09 штиль 0 н/о н/о +14.1 +13.1 94 +14 +14 1025.4 1012.0
23 11.09 ЮВ 1 н/о н/о +13.1 +12.3 95 +13 +13 1025.7 1012.2
00 12.09 штиль 0 н/о н/о +13.0 +12.5 97 +12 +12 1025.9 1012.4
01 12.09 ЮВ 1 н/о н/о +12.2 +11.7 97 +12 +12 1025.9 1012.4
02 12.09 штиль 0 н/о н/о +12.3 +12.1 99 +12 +12 1026.3 1012.8
03 12.09 Ю 1 н/о н/о +11.1 +10.9 99 +11 +11 1026.6 1013.0
04 12.09 З 2 н/о н/о +12.0 +11.8 99 +11 +11 1027.1 1013.5
05 12.09 штиль 0 н/о н/о +11.0 +10.8 99 +10 +10 1027.7 1014.1
06 12.09 З 1 н/о н/о +14.4 +14.2 99 +15 +15 1027.9 1014.4 +10.9
07 12.09 СЗ 1 н/о н/о +17.6 +14.3 81 +19 +19 1028.3 1015.0
08 12.09 СЗ 1 н/о н/о +20.1 +14.2 69 +23 +23 комфорт 1028.7 1015.5
09 12.09 З 3 н/о н/о +21.8 +13.2 58 +24 +24 комфорт 1029.0 1015.9
10 12.09 СЗ 3 н/о н/о +23.5 +12.8 51 +26 +26 жарко 1029.1 1016.0
11 12.09 СЗ 2
{8}
н/о н/о +24.0 +12.3 48 +26 +26 жарко 1028.8 1015.8
12 12.09 СЗ 2
{8}
н/о н/о +25.1 +12.7 46 +27 +27 жарко 1028.4 1015.4
13 12.09 СЗ 3
{7}
н/о н/о +25.0 +13.2 48 +27 +27 жарко 1028.1 1015.1
14 12.09 СЗ 2
{8}
н/о н/о +24.7 +10.2 40 +26 +26 жарко 1028.0 1015.0
15 12.09 СЗ 2
{9}
н/о н/о +24.1 +10.8 43 +25 +25 комфорт 1028.1 1015.1
16 12.09 СЗ 2
{7}
н/о н/о +22.9 +10.7 46 +25 +25 комфорт 1028.1 1015.0
17 12.09 С 1 н/о н/о +19.5 +11.8 61 +22 +22 комфорт 1028.6 1015.4
18 12.09 З 2 н/о н/о +18.8 +11.9 64 +20 +20 1028.8 1015.5 +25.4
19 12.09 СЗ 2 н/о н/о +16.8 +13.1 79 +17 +17 1029.3 1015.9
20 12.09 СЗ 1 н/о н/о +17.0 +12.5 75 +18 +18 1029.4 1016.0
21 12.09 З 2 н/о н/о +17.1 +12.6 75 +17 +17 1029.3 1016.0
22 12.09 З 1 н/о н/о +16.0 +13.1 83 +17 +17 1029.6 1016.2
23 12.09 СЗ 1 н/о н/о +14.7 +13.2 91 +15 +15 1029.8 1016.3
00 13.09 штиль 0 н/о н/о +14.0 +12.6 91 +14 +14 1029.7 1016.2
01 13.09 З 2 н/о н/о +15.4 +13.2 87 +15 +15 1029.5 1016.1
02 13.09 штиль 0 н/о н/о +12.8 +11.7 93 +12 +12 1029.8 1016.2
03 13.09 штиль 0 н/о н/о +10.4 +9.9 97 +10 +10 1030.0 1016.3
04 13.09 штиль 0 н/о н/о +10.9 +10.9 100 +10 +10 1030.2 1016.6
05 13.09 ЮВ 1 н/о н/о +10.0 +9.9 99 +9 +9 1030.5 1016.8
06 13.09 штиль 0 н/о н/о +14.6 +14.4 99 +14 +14 1030.2 1016.7 +9.8
07 13.09 С 1 н/о н/о +17.9 +14.2 79 +19 +19 1030.3 1017.0
08 13.09 СЗ 2 н/о н/о +20.4 +14.5 69 +24 +24 комфорт 1030.3 1017.1
09 13.09 СЗ 1 н/о н/о +22.3 +14.7 62 +26 +26 жарко 1029.9 1016.8
10 13.09 СЗ 1 н/о н/о +23.9 +14.3 55 +26 +26 жарко 1029.4 1016.4
11 13.09 СЗ 2 н/о н/о +25.4 +13.3 47 +27 +27 жарко 1028.8 1015.8
12 13.09 З 2 н/о н/о +24.4 +12.0 46 +26 +26 жарко 1028.6 1015.6
13 13.09 СЗ 2 н/о н/о +25.4 +12.3 44 +27 +27 жарко 1028.3 1015.3
14 13.09 СЗ 2
{9}
н/о н/о +25.0 +12.9 47 +27 +27 жарко 1027.8 1014.8
15 13.09 С 2
{7}
н/о н/о +23.7 +13.3 52 +26 +26 жарко 1027.8 1014.8
16 13.09 СЗ 2 н/о н/о +23.3 +12.9 52 +26 +26 жарко 1027.4 1014.4
17 13.09 С 1 н/о н/о +19.9 +13.8 68 +23 +23 комфорт 1027.8 1014.6
18 13.09 З 1 н/о н/о +20.0 +13.0 64 +23 +23 комфорт 1028.1 1014.9 +25.8
19 13.09 СЗ 2 н/о н/о +18.5 +14.6 78 +20 +20 1028.4 1015.1
20 13.09 С 1 н/о н/о +16.9 +14.0 83 +18 +18 1028.7 1015.4
21 13.09 СЗ 1 н/о н/о +17.6 +14.7 83 +19 +19 1028.5 1015.2
22 13.09 З 1 н/о н/о +17.3 +14.9 86 +18 +18 1028.7 1015.4
23 13.09 З 2 н/о н/о +16.6 +14.4 87 +17 +17 1028.8 1015.4
00 14.09 СЗ 1 н/о н/о +16.5 +14.3 87 +17 +17 1028.7 1015.3
01 14.09 СЗ 1 н/о н/о +15.6 +14.6 94 +16 +16 1028.7 1015.3
02 14.09 З 2 н/о н/о +15.6 +14.1 91 +15 +15 1028.6 1015.2
03 14.09 З 2 н/о н/о +15.7 +13.9 89 +16 +16 1028.8 1015.4
04 14.09 СЗ 1 н/о н/о +15.4 +13.8 90 +16 +16 1029.1 1015.7
05 14.09 ЮВ 1 н/о н/о +12.7 +11.9 95 +13 +13 1029.7 1016.1
06 14.09 З 1 н/о н/о +16.2 +15.4 95 +17 +17 1029.8 1016.4 +12.6
07 14.09 СЗ 2 н/о н/о +18.7 +14.8 78 +20 +20 1030.1 1016.8
08 14.09 З 2 н/о н/о +20.7 +14.1 66 +24 +24 комфорт 1030.3 1017.1
09 14.09 СЗ 2 н/о н/о +22.5 +13.3 56 +25 +25 комфорт 1030.3 1017.2
10 14.09 СЗ 1 н/о н/о +23.5 +13.1 52 +26 +26 жарко 1029.8 1016.7
11 14.09 СЗ 2 н/о н/о +24.4 +11.4 44 +26 +26 жарко 1029.3 1016.3
12 14.09 СЗ 2
{7}
н/о н/о +24.2 +10.8 43 +25 +25 комфорт 1028.9 1015.9
13 14.09 СЗ 2
{7}
н/о н/о +24.3 +12.0 46 +26 +26 жарко 1028.6 1015.6
14 14.09 СЗ 3
{8}
н/о н/о +23.4 +9.0 40 +25 +25 комфорт 1028.4 1015.3
15 14.09 СЗ 2
{9}
н/о н/о +22.7 +8.8 41 +24 +24 комфорт 1028.0 1014.9
16 14.09 СЗ 1 н/о н/о +21.5 +8.1 42 +23 +23 комфорт 1027.7 1014.6
17 14.09 СЗ 2 н/о н/о +18.8 +8.2 50 +20 +20 1028.4 1015.1
18 14.09 З 2 н/о н/о +17.5 +7.0 50 +18 +18 1028.7 1015.4 +24.8
19 14.09 З 3 н/о н/о +16.0 +7.0 55 +16 +16 1029.2 1015.8
20 14.09 СЗ 1 н/о н/о +16.1 +8.1 59 +17 +17 1029.5 1016.1
21 14.09 З 1 н/о н/о +12.0 +8.7 80 +12 +12 1029.8 1016.2
22 14.09 штиль 0 н/о н/о +10.8 +7.9 82 +10 +10 1029.9 1016.3
23 14.09 ЮВ 1 н/о н/о +9.1 +7.4 89 +8 +8 1029.8 1016.1
00 15.09 В 1 н/о н/о +10.5 +7.2 80 +10 +10 1029.9 1016.2
01 15.09 штиль 0 н/о н/о +8.7 +7.0 89 +8 +8 1029.8 1016.1
02 15.09 ЮВ 2 н/о н/о +8.2 +7.1 93 +6 +6 1029.3 1015.5
03 15.09 ЮВ 2 н/о н/о +7.5 +6.0 90 +5 +5 1029.0 1015.2
04 15.09 В 1 н/о н/о +8.5 +7.1 91 +8 +8 1028.9 1015.2
05 15.09 штиль 0 н/о н/о +7.1 +6.2 94 +6 +6 1029.1 1015.3
06 15.09 СВ 1 н/о н/о +11.7 +10.6 93 +11 +11 1029.0 1015.4 +6.9
07 15.09 В 1 н/о н/о +14.2 +9.8 75 +15 +15 1028.8 1015.3
08 15.09 ЮВ 2 н/о н/о +18.0 +6.8 48 +19 +19 1028.1 1014.8
09 15.09 Ю 3 н/о н/о +20.3 +7.0 42 +22 +22 комфорт 1027.4 1014.2
10 15.09 СЗ 2 н/о н/о +21.3 +7.2 40 +22 +22 комфорт 1026.8 1013.7
11 15.09 С 1 н/о н/о +22.0 +7.4 39 +23 +23 комфорт 1026.0 1012.9
12 15.09 С 1 н/о н/о +22.9 +8.6 40 +24 +24 комфорт 1025.2 1012.2
13 15.09 С 1 н/о н/о +23.9 +8.3 37 +24 +24 комфорт 1024.4 1011.4
14 15.09 СВ 1 н/о н/о +23.8 +9.8 41 +25 +25 комфорт 1023.4 1010.4
15 15.09 С 1 н/о н/о +23.1 +11.5 48 +25 +25 комфорт 1022.8 1009.8
16 15.09 штиль 0 н/о н/о +23.2 +11.3 47 +25 +25 комфорт 1022.1 1009.1
17 15.09 Ю 1 н/о н/о +18.6 +11.9 65 +20 +20 1021.9 1008.7
18 15.09 штиль 0 н/о н/о +16.2 +11.4 73 +16 +16 1022.0 1008.7 +24.2
19 15.09 штиль 0 н/о н/о +14.6 +12.8 89 +14 +14 1021.9 1008.5
20 15.09 штиль 0 н/о н/о +13.4 +12.0 91 +13 +13 1021.9 1008.5
21 15.09 ЮВ 1 н/о н/о +12.6 +11.7 94 +13 +13 1021.6 1008.1

 

Местоположение метеостанции Тат (Венгрия): широта 47.75 долгота 18.60 высота над уровнем моря 109 м.

В архиве по умолчанию представлена погода в Тате за последнюю неделю. Архивные данные за месяц целиком и за предыдущие месяцы, начиная с января 2011 года, Вы можете получить, выбрав интересующий диапазон дат из раскрывающегося списка и нажав кнопку "Ввод!".


*Определитесь, кто Вы:
робот инопланетянин человек

Внимание! Время в таблицах - всемирное. Для получения местного времени необходимо прибавить поправку, которая равна 1 ч.

Смотрите также архив погоды в соседних городах и на ближайших метеорологических станциях:

Погода в Тате (Венгрия) (24 км)
Погода в Гурбаново (Словакия) (33 км)
Погода в Дудинце (Словакия) (51 км)
Погода в Будапеште (Венгрия) (56 км)
Погода в Моховце (Словакия) (60 км)
Погода в Пер аэропорту (Венгрия) (61 км)
Погода в Агарде (Венгрия) (63 км)
Погода в Нитре (Словакия) (69 км)
Погода в Дьере (Венгрия) (69 км)
Погода в Сечене (Польша) (80 км)

Пояснения к столбцам:

Ветер - указаны скорость ветра в м/с - средняя за 10 мин, порывы в срок и между сроками (в фигурных скобках) и направление, откуда дует ветер: С - северный, СВ - северо-восточный, В - восточный, ЮВ - юго-восточный, Ю - южный, ЮЗ - юго-западный, З - западный, СЗ - северо-западный.
Видимость - горизонтальная дальность видимости в метрах или километрах. При видимости от 1 до 10 км при отсутствии осадков обычно наблюдается дымка, при ухудшении видимости до 1 км и менее - туман. В сухую погоду видимость может ухудшаться дымом, пылью или мглою.
Явления - указаны атмосферные явления, наблюдавшиеся в срок или в последний час перед сроком; фигурными скобками обозначены явления, наблюдавшиеся между сроками (за 1-3 часа до срока); квадратными скобками обозначены град или гололедные отложения с указанием их диаметра в мм.
Облачность - указаны через наклонную черту общая и нижняя облачность в баллах и высота нижней границы облаков в метрах; квадратными скобками обозначены формы облаков: Ci - перистые, Cs - перисто-слоистые, Cc - перисто-кучевые, Ac - высококучевые, As - высокослоистые, Sc - слоисто-кучевые, Ns - слоисто-дождевые, Cu - кучевые, Cb - кучево-дождевые. Подробнее классификацию облаков см. в Атласе облаков (PDF).
T - Температура воздуха - температура, измеренная на высоте 2 м над землей.
Td - Температура точки росы - температура, при понижении до которой содержащийся в воздухе водяной пар достигнет насыщения.
f - Относительная влажность воздуха - влажноcть воздуха, измеренная на высоте 2 м над землей.
Te - Эффективная температура - температура, которую ощущает одетый по сезону человек в тени. Характеристика душности погоды. При расчете учитывается влияние влажности воздуха и скорости ветра на теплоощущения человека.
Tes - Эффективная температура на солнце - температура, которую ощущает человек, с поправкой на солнечный нагрев. Характеристика знойности погоды. Зависит от высоты солнца над горизонтом, облачности и скорости ветра. Ночью, в пасмурную погоду, а также при ветре 12 м/с и более поправка равна нулю.
P - Атмосферное давление - приведенное к уровню моря атмосферное давление.
Po - Атмосферное давление - измеренное на уровне метеостанции атмосферное давление.
Tmin - Минимальная температура - минимум температуры воздуха на высоте 2 м над землей.
Tmax - Максимальная температура - максимум температуры воздуха на высоте 2 м над землей.
R - Количество осадков - Количество выпавших осадков за период времени, мм. При наведении курсора мыши на число - период времени, за который выпало указанное количество осадков.
R24 - Количество осадков - Количество выпавших осадков за 24 часа, мм.
S - Снежный покров - Высота снежного покрова, см. При наведении курсора мыши на число - состояние снежного покрова и степень покрытия местности в баллах.